Total_Precipitation_Accumulation
1.88 2.29 2.59 3.16 3.77 4.14 4.52 4.66 4.64 4.51 4.26 3.83 3.49 3.24 3.02 2.87 2.62 2.44 2.36 2.22 2.10 2.20 2.52 2.40 2.53 2.51 2.52 2.53 2.54 2.55 2.40 2.03 2.23 2.32 1.89 1.41 1.09 1.07 0.85 0.76 0.79 0.80 0.79
1.79 2.32 2.61 2.82 3.29 3.80 4.26 4.54 4.68 4.55 4.15 3.69 3.45 3.30 3.23 2.88 2.58 2.53 2.54 2.36 2.37 2.36 2.36 2.45 2.42 2.46 2.55 2.47 2.41 2.46 2.28 1.91 2.05 2.23 2.28 1.69 1.30 1.00 0.71 0.77 0.87 0.95 1.02
2.06 2.33 2.52 2.68 2.95 3.34 3.65 3.77 3.91 3.87 3.69 3.67 3.65 3.55 3.48 3.03 2.85 2.82 2.78 2.63 2.58 2.52 2.49 2.44 2.34 2.27 2.15 2.13 2.19 2.21 2.19 2.02 1.93 2.11 2.39 1.97 1.50 1.24 0.87 0.81 0.88 1.08 1.28
1.71 1.86 2.17 2.49 2.65 2.88 3.23 3.46 3.51 3.45 3.34 3.41 3.41 3.26 3.04 2.85 2.93 3.16 3.10 2.83 2.58 2.38 2.14 2.00 2.05 2.04 1.94 1.90 1.70 1.75 1.87 1.81 1.67 1.81 1.90 1.93 1.95 1.86 1.26 0.90 0.84 1.01 1.17
1.46 1.56 1.77 2.08 2.19 2.50 2.78 3.03 3.29 3.36 3.29 3.31 3.22 3.19 3.06 3.04 3.05 2.97 2.87 2.63 2.39 2.07 1.77 1.67 1.75 1.76 1.69 1.60 1.52 1.61 1.54 1.47 1.45 1.61 1.78 1.85 1.92 1.90 1.76 1.36 1.25 1.21 1.07
1.30 1.48 1.64 1.87 1.98 2.14 2.25 2.39 2.59 2.86 3.00 3.03 3.00 2.99 2.91 2.86 2.77 2.59 2.39 2.19 2.01 1.74 1.49 1.38 1.49 1.59 1.62 1.58 1.53 1.57 1.45 1.44 1.53 1.52 1.59 1.78 1.76 1.78 1.89 1.62 1.47 1.38 1.11
1.01 1.22 1.35 1.46 1.59 1.71 1.80 1.92 2.12 2.45 2.57 2.54 2.53 2.64 2.67 2.65 2.55 2.45 2.24 2.01 1.76 1.46 1.38 1.39 1.46 1.51 1.58 1.49 1.51 1.51 1.53 1.62 1.65 1.57 1.54 1.62 1.63 1.70 1.87 1.84 1.67 1.57 1.39
0.76 0.91 1.12 1.32 1.38 1.42 1.54 1.67 1.90 2.11 2.18 2.09 2.21 2.41 2.47 2.53 2.41 2.40 2.17 1.88 1.66 1.53 1.55 1.52 1.42 1.39 1.45 1.38 1.57 1.50 1.53 1.65 1.65 1.48 1.65 1.67 1.67 1.86 2.04 2.13 2.15 1.94 1.71
0.74 0.80 0.87 1.02 1.07 1.13 1.22 1.33 1.68 1.91 1.99 1.99 2.13 2.25 2.32 2.27 2.16 2.06 1.91 1.71 1.69 1.63 1.73 1.69 1.59 1.48 1.51 1.61 1.83 1.81 1.81 1.94 1.88 1.83 1.95 1.89 1.82 1.89 1.97 2.10 2.21 2.30 2.08
0.53 0.59 0.59 0.68 0.81 0.99 1.17 1.28 1.40 1.62 1.82 1.86 1.90 1.94 2.07 2.00 1.90 1.86 1.70 1.54 1.46 1.53 1.69 1.79 1.74 1.65 1.66 1.80 1.95 1.97 2.09 2.19 2.17 2.20 2.26 2.17 2.02 2.05 2.09 2.07 2.21 2.41 2.36
0.41 0.46 0.55 0.67 0.79 0.89 1.04 1.21 1.27 1.41 1.56 1.64 1.75 1.76 1.74 1.80 1.82 1.70 1.53 1.46 1.46 1.50 1.57 1.70 1.77 1.72 1.72 1.82 1.88 1.87 2.09 2.19 2.19 2.16 2.15 2.07 2.12 2.13 2.03 2.08 2.20 2.37 2.41
0.49 0.50 0.63 0.74 0.78 0.88 0.97 1.05 1.11 1.24 1.40 1.55 1.74 1.83 1.83 1.85 1.80 1.62 1.48 1.47 1.50 1.56 1.59 1.68 1.70 1.62 1.63 1.77 1.80 1.86 2.04 2.12 2.04 1.98 1.97 1.80 1.83 1.87 1.77 1.87 1.95 2.03 2.21
0.55 0.58 0.65 0.67 0.70 0.80 0.92 0.91 0.94 1.11 1.30 1.52 1.85 2.01 2.00 1.93 1.83 1.66 1.48 1.43 1.46 1.55 1.60 1.61 1.62 1.65 1.75 1.81 1.78 1.75 1.72 1.69 1.74 1.90 1.98 1.78 1.75 1.68 1.68 1.71 1.70 1.75 1.88
0.62 0.69 0.69 0.76 0.76 0.74 0.83 0.84 0.91 1.02 1.24 1.43 1.61 1.71 1.62 1.59 1.60 1.54 1.43 1.35 1.36 1.44 1.53 1.60 1.67 1.73 1.77 1.77 1.78 1.78 1.69 1.60 1.60 1.69 1.72 1.67 1.67 1.63 1.71 1.67 1.66 1.67 1.77
0.58 0.61 0.59 0.65 0.71 0.72 0.80 0.77 0.76 0.82 0.96 1.13 1.24 1.37 1.37 1.36 1.36 1.39 1.40 1.36 1.45 1.49 1.57 1.63 1.65 1.62 1.60 1.50 1.48 1.50 1.46 1.50 1.45 1.38 1.37 1.39 1.47 1.48 1.48 1.38 1.50 1.65 1.72
0.40 0.39 0.50 0.57 0.58 0.58 0.62 0.58 0.63 0.76 0.91 1.02 1.13 1.33 1.45 1.48 1.45 1.41 1.44 1.45 1.48 1.53 1.58 1.56 1.61 1.58 1.33 1.42 1.42 1.41 1.54 1.62 1.60 1.50 1.41 1.34 1.29 1.22 1.18 1.15 1.22 1.42 1.55
0.34 0.30 0.36 0.46 0.50 0.52 0.53 0.62 0.75 0.87 0.99 1.13 1.28 1.46 1.54 1.61 1.61 1.49 1.51 1.49 1.56 1.65 1.62 1.57 1.56 1.58 1.62 1.62 1.46 1.33 1.33 1.43 1.47 1.45 1.43 1.27 1.16 1.24 1.19 1.18 1.15 1.17 1.26
0.37 0.33 0.34 0.38 0.44 0.51 0.58 0.72 0.98 1.18 1.21 1.36 1.55 1.65 1.74 1.69 1.66 1.64 1.66 1.72 1.80 1.83 1.80 1.73 1.66 1.67 1.66 1.58 1.39 1.34 1.29 1.35 1.38 1.40 1.41 1.38 1.28 1.29 1.37 1.36 1.30 1.20 1.15
0.41 0.41 0.40 0.45 0.54 0.58 0.62 0.81 1.03 1.26 1.38 1.44 1.59 1.75 1.84 1.85 1.85 1.87 1.82 1.85 1.93 1.90 1.86 1.83 1.86 1.82 1.84 1.85 1.64 1.59 1.47 1.52 1.54 1.54 1.51 1.47 1.38 1.45 1.38 1.32 1.31 1.25 1.22
0.50 0.50 0.50 0.59 0.71 0.78 0.82 0.95 1.08 1.22 1.39 1.48 1.60 1.76 1.95 1.98 2.02 2.14 2.20 2.11 2.06 1.97 2.02 2.03 2.03 2.03 2.08 2.24 2.00 1.81 1.66 1.71 1.73 1.80 1.74 1.67 1.52 1.51 1.41 1.28 1.31 1.28 1.28
0.57 0.55 0.57 0.65 0.81 0.93 1.03 1.15 1.29 1.41 1.43 1.49 1.61 1.81 1.96 2.04 2.10 2.24 2.32 2.31 2.29 2.27 2.21 2.15 2.18 2.18 2.19 2.31 2.04 1.84 1.75 1.83 1.91 1.89 1.79 1.80 1.74 1.54 1.49 1.40 1.36 1.39 1.38
0.69 0.68 0.70 0.84 1.00 1.13 1.17 1.25 1.33 1.37 1.40 1.42 1.53 1.65 1.80 1.84 1.92 2.14 2.23 2.31 2.34 2.31 2.22 2.15 2.04 2.06 2.06 2.02 1.90 1.77 1.68 1.77 1.91 1.98 1.89 1.83 1.72 1.48 1.40 1.29 1.28 1.29 1.18
0.70 0.74 0.79 0.99 1.18 1.33 1.39 1.45 1.35 1.40 1.42 1.47 1.59 1.72 1.80 1.86 1.96 2.00 2.00 2.08 2.17 2.16 2.08 2.06 1.99 1.96 1.98 1.96 1.73 1.51 1.44 1.47 1.54 1.71 1.80 1.66 1.51 1.31 1.15 1.11 1.08 0.99 0.88
0.61 0.66 0.74 0.85 0.96 1.15 1.31 1.40 1.43 1.47 1.50 1.54 1.59 1.66 1.77 1.79 1.82 1.93 2.01 2.07 2.18 2.28 2.19 2.08 1.99 1.94 1.90 1.79 1.61 1.42 1.33 1.39 1.46 1.56 1.61 1.46 1.33 1.15 1.06 0.99 0.91 0.85 0.89
0.61 0.65 0.74 0.76 0.82 0.90 1.00 1.08 1.16 1.28 1.35 1.40 1.46 1.51 1.54 1.63 1.70 1.75 1.83 1.85 1.93 1.93 1.91 1.86 1.84 1.83 1.78 1.62 1.52 1.39 1.28 1.32 1.42 1.48 1.53 1.43 1.37 1.29 1.20 1.13 1.06 1.04 1.05
0.66 0.69 0.72 0.73 0.76 0.79 0.93 1.03 1.11 1.25 1.38 1.48 1.51 1.44 1.42 1.47 1.51 1.54 1.53 1.52 1.45 1.43 1.39 1.40 1.40 1.39 1.34 1.24 1.12 1.08 1.08 1.11 1.24 1.30 1.47 1.54 1.50 1.45 1.38 1.26 1.16 1.11 1.07